Tracking 30701 objects as of 15-Jun-2025
HD Live streaming from Space Station
objects crossing your sky now

COSMOS 1275 DEB

Track COSMOS 1275 DEB now!
10-day predictions


NORAD ID: 42197
Int'l Code: 1981-053TM
Perigee: 917.9 km
Apogee: 1,091.2 km
Inclination: 82.8 °
Period: 105.1 minutes
Semi major axis: 7375 km
RCS: Unknown
Launch date: June 4, 1981
Source: Commonwealth of Independent States (former USSR) (CIS)
Launch site: PLESETSK MISSILE AND SPACE COMPLEX (PKMTR)

Note: This is SATELLITE DEBRIS
Your satellite tracking list
Your tracking list is empty




NASA's NSSDC Master Catalog

Two Line Element Set (TLE):
1 42197U 81053TM  25162.10787049  .00000907  00000-0  95849-3 0  9996
2 42197  82.8461 295.3722 0117426 195.6305 164.1212 13.70600426135054
Source of the keplerian elements: AFSPC